utcTime,localTime,pm25,nowcast
2022-09-09 15:00:00 +0000,2022-09-09 09:00:00 -0600,21.6,NA
2022-09-09 16:00:00 +0000,2022-09-09 10:00:00 -0600,28,25.2
2022-09-09 17:00:00 +0000,2022-09-09 11:00:00 -0600,32.2,28.6
2022-09-09 18:00:00 +0000,2022-09-09 12:00:00 -0600,32.9,30.4
2022-09-09 19:00:00 +0000,2022-09-09 13:00:00 -0600,33.2,31.5
2022-09-09 20:00:00 +0000,2022-09-09 14:00:00 -0600,32.5,31.9
2022-09-09 21:00:00 +0000,2022-09-09 15:00:00 -0600,35.7,33.5
2022-09-09 22:00:00 +0000,2022-09-09 16:00:00 -0600,38.2,35.7
2022-09-09 23:00:00 +0000,2022-09-09 17:00:00 -0600,37.4,36.4
2022-09-10 00:00:00 +0000,2022-09-09 18:00:00 -0600,38.1,37.1
2022-09-10 01:00:00 +0000,2022-09-09 19:00:00 -0600,38.2,37.6
2022-09-10 02:00:00 +0000,2022-09-09 20:00:00 -0600,39.6,38.5
2022-09-10 03:00:00 +0000,2022-09-09 21:00:00 -0600,47.6,42.1
2022-09-10 04:00:00 +0000,2022-09-09 22:00:00 -0600,46,42.7
2022-09-10 05:00:00 +0000,2022-09-09 23:00:00 -0600,48.1,44.5
2022-09-10 06:00:00 +0000,2022-09-10 00:00:00 -0600,55.3,49.5
2022-09-10 07:00:00 +0000,2022-09-10 01:00:00 -0600,68.2,59.5
2022-09-10 08:00:00 +0000,2022-09-10 02:00:00 -0600,60,59.4
2022-09-10 09:00:00 +0000,2022-09-10 03:00:00 -0600,54.6,57
2022-09-10 10:00:00 +0000,2022-09-10 04:00:00 -0600,53.2,55.3
2022-09-10 11:00:00 +0000,2022-09-10 05:00:00 -0600,50,52.9
2022-09-10 12:00:00 +0000,2022-09-10 06:00:00 -0600,46.8,50.2
2022-09-10 13:00:00 +0000,2022-09-10 07:00:00 -0600,44.6,48
2022-09-10 14:00:00 +0000,2022-09-10 08:00:00 -0600,36.9,42.6
2022-09-10 15:00:00 +0000,2022-09-10 09:00:00 -0600,30.7,36.3
2022-09-10 16:00:00 +0000,2022-09-10 10:00:00 -0600,30.2,33.2
2022-09-10 17:00:00 +0000,2022-09-10 11:00:00 -0600,32,32.6
2022-09-10 18:00:00 +0000,2022-09-10 12:00:00 -0600,NA,NA
2022-09-10 19:00:00 +0000,2022-09-10 13:00:00 -0600,NA,NA
2022-09-10 20:00:00 +0000,2022-09-10 14:00:00 -0600,NA,NA
2022-09-10 21:00:00 +0000,2022-09-10 15:00:00 -0600,NA,NA
2022-09-10 22:00:00 +0000,2022-09-10 16:00:00 -0600,NA,NA
2022-09-10 23:00:00 +0000,2022-09-10 17:00:00 -0600,28.9,NA
2022-09-11 00:00:00 +0000,2022-09-10 18:00:00 -0600,29.5,29.5
2022-09-11 01:00:00 +0000,2022-09-10 19:00:00 -0600,35.7,31.9
2022-09-11 02:00:00 +0000,2022-09-10 20:00:00 -0600,37.5,33.7
2022-09-11 03:00:00 +0000,2022-09-10 21:00:00 -0600,41.4,36.7
2022-09-11 04:00:00 +0000,2022-09-10 22:00:00 -0600,41,38.2
2022-09-11 05:00:00 +0000,2022-09-10 23:00:00 -0600,37.4,37.9
2022-09-11 06:00:00 +0000,2022-09-11 00:00:00 -0600,39.5,38.4
2022-09-11 07:00:00 +0000,2022-09-11 01:00:00 -0600,34.4,37.1
2022-09-11 08:00:00 +0000,2022-09-11 02:00:00 -0600,34.9,36.4
2022-09-11 09:00:00 +0000,2022-09-11 03:00:00 -0600,36.1,36.3
2022-09-11 10:00:00 +0000,2022-09-11 04:00:00 -0600,34.6,35.8
2022-09-11 11:00:00 +0000,2022-09-11 05:00:00 -0600,34.5,35.5
2022-09-11 12:00:00 +0000,2022-09-11 06:00:00 -0600,34.5,35.8
2022-09-11 13:00:00 +0000,2022-09-11 07:00:00 -0600,33.3,35.1
2022-09-11 14:00:00 +0000,2022-09-11 08:00:00 -0600,31,33.8
2022-09-11 15:00:00 +0000,2022-09-11 09:00:00 -0600,28.5,31.9
2022-09-11 16:00:00 +0000,2022-09-11 10:00:00 -0600,31.5,31.9
2022-09-11 17:00:00 +0000,2022-09-11 11:00:00 -0600,34.4,32.5
2022-09-11 18:00:00 +0000,2022-09-11 12:00:00 -0600,29.2,31.8
2022-09-11 19:00:00 +0000,2022-09-11 13:00:00 -0600,27.2,30.5
2022-09-11 20:00:00 +0000,2022-09-11 14:00:00 -0600,25.3,28.6
2022-09-11 21:00:00 +0000,2022-09-11 15:00:00 -0600,22.4,26.1
2022-09-11 22:00:00 +0000,2022-09-11 16:00:00 -0600,21.5,24.2
2022-09-11 23:00:00 +0000,2022-09-11 17:00:00 -0600,21.6,23.2
2022-09-12 00:00:00 +0000,2022-09-11 18:00:00 -0600,21,22.2
2022-09-12 01:00:00 +0000,2022-09-11 19:00:00 -0600,22.3,22.2
2022-09-12 02:00:00 +0000,2022-09-11 20:00:00 -0600,27.8,24.4
2022-09-12 03:00:00 +0000,2022-09-11 21:00:00 -0600,29.4,26.3
2022-09-12 04:00:00 +0000,2022-09-11 22:00:00 -0600,26.7,26.4
2022-09-12 05:00:00 +0000,2022-09-11 23:00:00 -0600,25.6,25.8
2022-09-12 06:00:00 +0000,2022-09-12 00:00:00 -0600,25.2,25.6
2022-09-12 07:00:00 +0000,2022-09-12 01:00:00 -0600,25.2,25.4
2022-09-12 08:00:00 +0000,2022-09-12 02:00:00 -0600,24.9,25.3
2022-09-12 09:00:00 +0000,2022-09-12 03:00:00 -0600,24.8,25.1
2022-09-12 10:00:00 +0000,2022-09-12 04:00:00 -0600,24.7,25
2022-09-12 11:00:00 +0000,2022-09-12 05:00:00 -0600,23.6,24.6
2022-09-12 12:00:00 +0000,2022-09-12 06:00:00 -0600,23.3,24.4
2022-09-12 13:00:00 +0000,2022-09-12 07:00:00 -0600,24.4,24.5
2022-09-12 14:00:00 +0000,2022-09-12 08:00:00 -0600,26.8,25
2022-09-12 15:00:00 +0000,2022-09-12 09:00:00 -0600,25.2,24.9
2022-09-12 16:00:00 +0000,2022-09-12 10:00:00 -0600,22.5,24.4
2022-09-12 17:00:00 +0000,2022-09-12 11:00:00 -0600,28,25.1
2022-09-12 18:00:00 +0000,2022-09-12 12:00:00 -0600,22.3,24.5
2022-09-12 19:00:00 +0000,2022-09-12 13:00:00 -0600,20.6,23.4
2022-09-12 20:00:00 +0000,2022-09-12 14:00:00 -0600,18.5,21.5
2022-09-12 21:00:00 +0000,2022-09-12 15:00:00 -0600,16.2,18.9
2022-09-12 22:00:00 +0000,2022-09-12 16:00:00 -0600,15.9,17.5
2022-09-12 23:00:00 +0000,2022-09-12 17:00:00 -0600,16.1,16.9
2022-09-13 00:00:00 +0000,2022-09-12 18:00:00 -0600,15.3,16.1
2022-09-13 01:00:00 +0000,2022-09-12 19:00:00 -0600,15.4,15.7
2022-09-13 02:00:00 +0000,2022-09-12 20:00:00 -0600,17.6,16.6
2022-09-13 03:00:00 +0000,2022-09-12 21:00:00 -0600,16.1,16.3
2022-09-13 04:00:00 +0000,2022-09-12 22:00:00 -0600,15.5,15.9
2022-09-13 05:00:00 +0000,2022-09-12 23:00:00 -0600,14.3,15.4
2022-09-13 06:00:00 +0000,2022-09-13 00:00:00 -0600,11.7,13.7
2022-09-13 07:00:00 +0000,2022-09-13 01:00:00 -0600,14.4,14.1
2022-09-13 08:00:00 +0000,2022-09-13 02:00:00 -0600,10.4,12.5
2022-09-13 09:00:00 +0000,2022-09-13 03:00:00 -0600,11.1,11.9
2022-09-13 10:00:00 +0000,2022-09-13 04:00:00 -0600,6.2,8.9
2022-09-13 11:00:00 +0000,2022-09-13 05:00:00 -0600,3.8,6.3
2022-09-13 12:00:00 +0000,2022-09-13 06:00:00 -0600,3.8,5
2022-09-13 13:00:00 +0000,2022-09-13 07:00:00 -0600,2.2,3.6
2022-09-13 14:00:00 +0000,2022-09-13 08:00:00 -0600,2.1,2.8
2022-09-13 15:00:00 +0000,2022-09-13 09:00:00 -0600,4.3,3.5
2022-09-13 16:00:00 +0000,2022-09-13 10:00:00 -0600,1.8,2.6
2022-09-13 17:00:00 +0000,2022-09-13 11:00:00 -0600,2.1,2.3
2022-09-13 18:00:00 +0000,2022-09-13 12:00:00 -0600,1.7,2
2022-09-13 19:00:00 +0000,2022-09-13 13:00:00 -0600,1.4,1.7
2022-09-13 20:00:00 +0000,2022-09-13 14:00:00 -0600,1.6,1.6
2022-09-13 21:00:00 +0000,2022-09-13 15:00:00 -0600,1.8,1.7
2022-09-13 22:00:00 +0000,2022-09-13 16:00:00 -0600,2.1,1.9
2022-09-13 23:00:00 +0000,2022-09-13 17:00:00 -0600,2.4,2.1
2022-09-14 00:00:00 +0000,2022-09-13 18:00:00 -0600,3.7,2.9
2022-09-14 01:00:00 +0000,2022-09-13 19:00:00 -0600,3.5,3.2
2022-09-14 02:00:00 +0000,2022-09-13 20:00:00 -0600,3.4,3.3
2022-09-14 03:00:00 +0000,2022-09-13 21:00:00 -0600,3.5,3.4
2022-09-14 04:00:00 +0000,2022-09-13 22:00:00 -0600,4.2,3.8
2022-09-14 05:00:00 +0000,2022-09-13 23:00:00 -0600,3.9,3.8
2022-09-14 06:00:00 +0000,2022-09-14 00:00:00 -0600,3.2,3.5
2022-09-14 07:00:00 +0000,2022-09-14 01:00:00 -0600,5,4.2
2022-09-14 08:00:00 +0000,2022-09-14 02:00:00 -0600,5.2,4.7
2022-09-14 09:00:00 +0000,2022-09-14 03:00:00 -0600,3.9,4.3
2022-09-14 10:00:00 +0000,2022-09-14 04:00:00 -0600,3.9,4.1
2022-09-14 11:00:00 +0000,2022-09-14 05:00:00 -0600,3.8,4
2022-09-14 12:00:00 +0000,2022-09-14 06:00:00 -0600,4.3,4.1
2022-09-14 13:00:00 +0000,2022-09-14 07:00:00 -0600,5.1,4.5
2022-09-14 14:00:00 +0000,2022-09-14 08:00:00 -0600,7.7,6.1
2022-09-14 15:00:00 +0000,2022-09-14 09:00:00 -0600,7.9,7
2022-09-14 16:00:00 +0000,2022-09-14 10:00:00 -0600,8.7,7.8
2022-09-14 17:00:00 +0000,2022-09-14 11:00:00 -0600,5.2,6.5
2022-09-14 18:00:00 +0000,2022-09-14 12:00:00 -0600,5.7,6.1
2022-09-14 19:00:00 +0000,2022-09-14 13:00:00 -0600,7.9,7
2022-09-14 20:00:00 +0000,2022-09-14 14:00:00 -0600,9.6,8.3
2022-09-14 21:00:00 +0000,2022-09-14 15:00:00 -0600,9.7,9
2022-09-14 22:00:00 +0000,2022-09-14 16:00:00 -0600,6.3,7.6
2022-09-14 23:00:00 +0000,2022-09-14 17:00:00 -0600,5.7,6.6
2022-09-15 00:00:00 +0000,2022-09-14 18:00:00 -0600,6.3,6.5
2022-09-15 01:00:00 +0000,2022-09-14 19:00:00 -0600,6.5,6.5
2022-09-15 02:00:00 +0000,2022-09-14 20:00:00 -0600,6.7,6.6
2022-09-15 03:00:00 +0000,2022-09-14 21:00:00 -0600,6.8,6.6
2022-09-15 04:00:00 +0000,2022-09-14 22:00:00 -0600,7.5,7
2022-09-15 05:00:00 +0000,2022-09-14 23:00:00 -0600,7.4,7.1
2022-09-15 06:00:00 +0000,2022-09-15 00:00:00 -0600,7.2,7.1
2022-09-15 07:00:00 +0000,2022-09-15 01:00:00 -0600,6.4,6.8
2022-09-15 08:00:00 +0000,2022-09-15 02:00:00 -0600,6.1,6.5
2022-09-15 09:00:00 +0000,2022-09-15 03:00:00 -0600,7,6.7
2022-09-15 10:00:00 +0000,2022-09-15 04:00:00 -0600,6.9,6.7
2022-09-15 11:00:00 +0000,2022-09-15 05:00:00 -0600,7.1,6.8
2022-09-15 12:00:00 +0000,2022-09-15 06:00:00 -0600,7.8,7
2022-09-15 13:00:00 +0000,2022-09-15 07:00:00 -0600,7.9,7.2
2022-09-15 14:00:00 +0000,2022-09-15 08:00:00 -0600,7.6,7.3
2022-09-15 15:00:00 +0000,2022-09-15 09:00:00 -0600,7.3,7.3
2022-09-15 16:00:00 +0000,2022-09-15 10:00:00 -0600,6.9,7.2
2022-09-15 17:00:00 +0000,2022-09-15 11:00:00 -0600,7.6,7.3
2022-09-15 18:00:00 +0000,2022-09-15 12:00:00 -0600,5.7,6.8
2022-09-15 19:00:00 +0000,2022-09-15 13:00:00 -0600,3.8,5.1
2022-09-15 20:00:00 +0000,2022-09-15 14:00:00 -0600,3.5,4.3
2022-09-15 21:00:00 +0000,2022-09-15 15:00:00 -0600,3.9,4.1
2022-09-15 22:00:00 +0000,2022-09-15 16:00:00 -0600,3.8,3.9
2022-09-15 23:00:00 +0000,2022-09-15 17:00:00 -0600,3.6,3.7
2022-09-16 00:00:00 +0000,2022-09-15 18:00:00 -0600,3.5,3.6
2022-09-16 01:00:00 +0000,2022-09-15 19:00:00 -0600,7,5.3
2022-09-16 02:00:00 +0000,2022-09-15 20:00:00 -0600,4.8,5
2022-09-16 03:00:00 +0000,2022-09-15 21:00:00 -0600,5.4,5.2
2022-09-16 04:00:00 +0000,2022-09-15 22:00:00 -0600,8,6.6
2022-09-16 05:00:00 +0000,2022-09-15 23:00:00 -0600,8.9,7.7
2022-09-16 06:00:00 +0000,2022-09-16 00:00:00 -0600,6,6.8
2022-09-16 07:00:00 +0000,2022-09-16 01:00:00 -0600,6,6.4
2022-09-16 08:00:00 +0000,2022-09-16 02:00:00 -0600,3.2,4.8
2022-09-16 09:00:00 +0000,2022-09-16 03:00:00 -0600,2.6,3.7
2022-09-16 10:00:00 +0000,2022-09-16 04:00:00 -0600,2.4,3
2022-09-16 11:00:00 +0000,2022-09-16 05:00:00 -0600,3.8,3.4
2022-09-16 12:00:00 +0000,2022-09-16 06:00:00 -0600,3,3.2
2022-09-16 13:00:00 +0000,2022-09-16 07:00:00 -0600,3.9,3.5
2022-09-16 14:00:00 +0000,2022-09-16 08:00:00 -0600,4.5,4
2022-09-16 15:00:00 +0000,2022-09-16 09:00:00 -0600,4.5,4.2
2022-09-16 16:00:00 +0000,2022-09-16 10:00:00 -0600,4,4.1
2022-09-16 17:00:00 +0000,2022-09-16 11:00:00 -0600,3.6,3.8
2022-09-16 18:00:00 +0000,2022-09-16 12:00:00 -0600,2.4,3.1
2022-09-16 19:00:00 +0000,2022-09-16 13:00:00 -0600,3.6,3.3
2022-09-16 20:00:00 +0000,2022-09-16 14:00:00 -0600,2.7,3
2022-09-16 21:00:00 +0000,2022-09-16 15:00:00 -0600,3.3,3.1
2022-09-16 22:00:00 +0000,2022-09-16 16:00:00 -0600,3.1,3.1
2022-09-16 23:00:00 +0000,2022-09-16 17:00:00 -0600,3.2,3.1
2022-09-17 00:00:00 +0000,2022-09-16 18:00:00 -0600,3.8,3.4
2022-09-17 01:00:00 +0000,2022-09-16 19:00:00 -0600,5.3,4.3
2022-09-17 02:00:00 +0000,2022-09-16 20:00:00 -0600,8.9,6.6
2022-09-17 03:00:00 +0000,2022-09-16 21:00:00 -0600,10.5,8.5
2022-09-17 04:00:00 +0000,2022-09-16 22:00:00 -0600,12.4,10.4
2022-09-17 05:00:00 +0000,2022-09-16 23:00:00 -0600,11.8,11.1
2022-09-17 06:00:00 +0000,2022-09-17 00:00:00 -0600,13.8,12.4
2022-09-17 07:00:00 +0000,2022-09-17 01:00:00 -0600,14.4,13.4
2022-09-17 08:00:00 +0000,2022-09-17 02:00:00 -0600,14.3,13.8
2022-09-17 09:00:00 +0000,2022-09-17 03:00:00 -0600,15.6,14.7
2022-09-17 10:00:00 +0000,2022-09-17 04:00:00 -0600,12.4,13.5
2022-09-17 11:00:00 +0000,2022-09-17 05:00:00 -0600,12.5,13
2022-09-17 12:00:00 +0000,2022-09-17 06:00:00 -0600,12,12.5
2022-09-17 13:00:00 +0000,2022-09-17 07:00:00 -0600,13.6,13
2022-09-17 14:00:00 +0000,2022-09-17 08:00:00 -0600,13.4,13.1
2022-09-17 15:00:00 +0000,2022-09-17 09:00:00 -0600,13.1,13.1
2022-09-17 16:00:00 +0000,2022-09-17 10:00:00 -0600,14.7,13.5
2022-09-17 17:00:00 +0000,2022-09-17 11:00:00 -0600,15.6,14
2022-09-17 18:00:00 +0000,2022-09-17 12:00:00 -0600,12.8,13.7
2022-09-17 19:00:00 +0000,2022-09-17 13:00:00 -0600,11.9,13.3
2022-09-17 20:00:00 +0000,2022-09-17 14:00:00 -0600,10.5,12.2
2022-09-17 21:00:00 +0000,2022-09-17 15:00:00 -0600,10,11.3
2022-09-17 22:00:00 +0000,2022-09-17 16:00:00 -0600,9.6,10.6
2022-09-17 23:00:00 +0000,2022-09-17 17:00:00 -0600,8.8,9.7
2022-09-18 00:00:00 +0000,2022-09-17 18:00:00 -0600,9.2,9.4
2022-09-18 01:00:00 +0000,2022-09-17 19:00:00 -0600,8.3,8.8
2022-09-18 02:00:00 +0000,2022-09-17 20:00:00 -0600,10,9.4
2022-09-18 03:00:00 +0000,2022-09-17 21:00:00 -0600,11.3,10.2
2022-09-18 04:00:00 +0000,2022-09-17 22:00:00 -0600,10.7,10.4
2022-09-18 05:00:00 +0000,2022-09-17 23:00:00 -0600,12.2,10.9
2022-09-18 06:00:00 +0000,2022-09-18 00:00:00 -0600,11.8,11.1
2022-09-18 07:00:00 +0000,2022-09-18 01:00:00 -0600,12.9,11.8
2022-09-18 08:00:00 +0000,2022-09-18 02:00:00 -0600,10,11.1
2022-09-18 09:00:00 +0000,2022-09-18 03:00:00 -0600,9.9,10.7
2022-09-18 10:00:00 +0000,2022-09-18 04:00:00 -0600,9.4,10.2
2022-09-18 11:00:00 +0000,2022-09-18 05:00:00 -0600,7.6,9
2022-09-18 12:00:00 +0000,2022-09-18 06:00:00 -0600,7.5,8.4
2022-09-18 13:00:00 +0000,2022-09-18 07:00:00 -0600,7.1,7.7
2022-09-18 14:00:00 +0000,2022-09-18 08:00:00 -0600,6.9,7.3
2022-09-18 15:00:00 +0000,2022-09-18 09:00:00 -0600,5.2,6.2
2022-09-18 16:00:00 +0000,2022-09-18 10:00:00 -0600,4.1,5.1
2022-09-18 17:00:00 +0000,2022-09-18 11:00:00 -0600,2.7,3.9
2022-09-18 18:00:00 +0000,2022-09-18 12:00:00 -0600,2,2.9
2022-09-18 19:00:00 +0000,2022-09-18 13:00:00 -0600,1.9,2.4
2022-09-18 20:00:00 +0000,2022-09-18 14:00:00 -0600,1.7,2
2022-09-18 21:00:00 +0000,2022-09-18 15:00:00 -0600,1.8,1.9
2022-09-18 22:00:00 +0000,2022-09-18 16:00:00 -0600,1.6,1.7
2022-09-18 23:00:00 +0000,2022-09-18 17:00:00 -0600,2.8,2.2
2022-09-19 00:00:00 +0000,2022-09-18 18:00:00 -0600,3.1,2.6
2022-09-19 01:00:00 +0000,2022-09-18 19:00:00 -0600,5.1,3.8
2022-09-19 02:00:00 +0000,2022-09-18 20:00:00 -0600,4.3,4
2022-09-19 03:00:00 +0000,2022-09-18 21:00:00 -0600,5.5,4.7
2022-09-19 04:00:00 +0000,2022-09-18 22:00:00 -0600,3.1,3.9
2022-09-19 05:00:00 +0000,2022-09-18 23:00:00 -0600,2.9,3.4
2022-09-19 06:00:00 +0000,2022-09-19 00:00:00 -0600,2.1,2.7
2022-09-19 07:00:00 +0000,2022-09-19 01:00:00 -0600,2.1,2.4
2022-09-19 08:00:00 +0000,2022-09-19 02:00:00 -0600,2.4,2.4
2022-09-19 09:00:00 +0000,2022-09-19 03:00:00 -0600,2,2.2
2022-09-19 10:00:00 +0000,2022-09-19 04:00:00 -0600,1.9,2
2022-09-19 11:00:00 +0000,2022-09-19 05:00:00 -0600,2.4,2.2
2022-09-19 12:00:00 +0000,2022-09-19 06:00:00 -0600,2.6,2.4
2022-09-19 13:00:00 +0000,2022-09-19 07:00:00 -0600,3.8,3.1
2022-09-19 14:00:00 +0000,2022-09-19 08:00:00 -0600,3.7,3.4
2022-09-19 15:00:00 +0000,2022-09-19 09:00:00 -0600,NA,NA
